SCP
0 0 0 0 0 0 0 0 0 0 0 0 0 0 0 0 0 0 0 0 0 0 0 0 0 0 0 0 0 0 0 0 0 0 0 0 0 0 0 0 0 0 0 0
0 0 0 0 0 0 0 0 0 0 0 0 0 0 0 0 0 0 0 0 0 0 0 0 0 0 0 0 0 0 0 0 0 0 0 0 0 0 0 0 0 0 0 0
0 0 0 0 0 0 0 0 0 0 0 0 0 0 0 0 0 0 0 0 0 0 0 0 0 0 0 0 0 0 0 0 0 0 0 0 0 0 0 0 0 0 0 0
0 0 0 0 0 0 0 0 0 0 0 0 0 0 0 0 0 0 0 0 0 0 0 0 0 0 0 0 0 0 0 0 0 0 0 0 0 0 0 0 0 0 0 0
0 0 0 0 0 0 0 0 0 0 0 0 0 0 0 0 0 0 0 0 0 0 0 0 0 0 0 0 0 0 0 0 0 0 0 0 0 0 0 0 0 0 0 0
0 0 0 0 0 0 0 0 0 0 0 0 0 0 0 0 0 0 0 0 0 0 0 0 0 0 0 0 0 0 0 0 0 0 0 0 0 0 0 0 0 0 0 0
0 0 0 0 0 0 0 0 0 0 0 0 0 0 0 0 0 0 0 0 0 0 0 0 0 0 0 0 0 0 0 0 0 0 0 0 0 0 0 0 0 0 0 0
0 0 0 0 0 0 0 0 0 0 0 0 0 0 0 0 0 0 0 0 0 0 0 0 0 0 0 0 0 0 0 0 0 0 0 0 0 0 0 0 0 0 0 0
0 0 0 0 0 0 0 0 0 0 0 0 0 0 0 0 0 0 0 0 0 0 0 0 0 0 0 0 0 0 0 0 0 0 0 0 0 0 0 0 0 0 0 0
0 0 0 0 0 0 0 0 0 0 0 0 0 0 0 0 0 0 0 0 0 0 0 0 0 0 0 0 0 0 0 0 0 0 0 0 0 0 0 0 0 0 0 0
0 0 0 0 0 0 0 0 0 0 0 0 0 0 0 0 0 0 0 0 0 0 0 0 0 0 0 0 0 0 0 0 0 0 0 0 0 0 0 0 0 0 0 0
0 0 0 0 0 0 0 0 0 0 0 0 0 0 0 0 0 0 0 0 0 0 0 0 0 0 0 0 0 0 0 0 0 0 0 0 0 0 0 0 0 0 0 0
0 0 0 0 0 0 0 0 0 0 0 0 0 0 0 0 0 0 0 0 0 0 0 0 0 0 0 0 0 0 0 0 0 0 0 0 0 0 0 0 0 0 0 0
0 0 0 0 0 0 0 0 0 0 0 0 0 0 0 0 0 0 0 0 0 0 0 0 0 0 0 0 0 0 0 0 0 0 0 0 0 0 0 0 0 0 0 0
0 0 0 0 0 0 0 0 0 0 0 0 0 0 0 0 0 0 0 0 0 0 0 0 0 0 0 0 0 0 0 0 0 0 0 0 0 0 0 0 0 0 0 0
0 0 0 0 0 0 0 0 0 0 0 0 0 0 0 0 0 0 0 0 0 0 0 0 0 0 0 0 0 0 0 0 0 0 0 0 0 0 0 0 0 0 0 0
0 0 0 0 0 0 0 0 0 0 0 0 0 0 0 0 0 0 0 0 0 0 0 0 0 0 0 0 0 0 0 0 0 0 0 0 0 0 0 0 0 0 0 0
0 0 0 0 0 0 0 0 0 0 0 0 0 0 0 0 0 0 0 0 0 0 0 0 0 0 0 0 0 0 0 0 0 0 0 0 0 0 0 0 0 0 0 0
0 0 0 0 0 0 0 0 0 0 0 0 0 0 0 0 0 0 0 0 0 0 0 0 0 0 0 0 0 0 0 0 0 0 0 0 0 0 0 0 0 0 0 0
0 0 0 0 0 0 0 0 0 0 0 0 0 0 0 0 0 0 0 0 0 0 0 0 0 0 0 0 0 0 0 0 0 0 0 0 0 0 0 0 0 0 0 0
0 0 0 0 0 0 0 0 0 0 0 0 0 0 0 0 0 0 0 0 0 0 0 0 0 0 0 0 0 0 0 0 0 0 0 0 0 0 0 0 0 0 0 0
0 0 0 0 0 0 0 0 0 0 0 0 0 0 0 0 0 0 0 0 0 0 0 0 0 0 0 0 0 0 0 0 0 0 0 0 0 0 0 0 0 0 0 0
0 0 0 0 0 0 0 0 0 0 0 0 0 0 0 0 0 0 0 0 0 0 0 0 0 0 0 0 0 0 0 0 0 0 0 0 0 0 0 0 0 0 0 0
0 0 0 0 0 0 0 0 0 0 0 0 0 0 0 0 0 0 0 0 0 0 0 0 0 0 0 0 0 0 0 0 0 0 0 0 0 0 0 0 0 0 0 0
0 0 0 0 0 0 0 0 0 0 0 0 0 0 0 0 0 0 0 0 0 0 0 0 0 0 0 0 0 0 0 0 0 0 0 0 0 0 0 0 0 0 0 0
0 0 0 0 0 0 0 0 0 0 0 0 0 0 0 0 0 0 0 0 0 0 0 0 0 0 0 0 0 0 0 0 0 0 0 0 0 0 0 0 0 0 0 0
Wind_Speed
1 2 5 8 9 5 4 4 5 6 3 3 8 11 9 5 5 5 5 5 5 5 4 3 3 2 2 2 2 2 2 2 2 2 2 2 1 1 1 0 1 2 2 2
2 6 8 4 4 3 3 4 5 5 2 4 6 11 8 6 7 7 7 7 6 3 2 3 2 2 2 2 2 2 2 2 2 3 2 2 2 1 1 0 1 1 2 2
7 5 4 3 3 4 6 6 6 5 4 3 3 8 5 4 3 3 4 5 5 5 5 4 4 3 3 2 2 2 2 2 2 2 2 2 2 1 1 0 0 1 1 2
5 4 2 3 5 6 8 6 5 4 2 4 2 6 7 3 2 2 3 3 4 4 4 4 4 4 3 3 2 2 2 2 2 3 4 4 3 2 1 1 1 0 1 1
5 3 3 5 6 5 6 3 4 4 4 3 3 4 9 1 3 5 4 3 4 4 4 4 4 4 3 2 2 2 2 2 2 3 3 4 2 1 1 1 1 0 0 1
5 2 3 4 3 3 1 1 2 2 2 5 6 6 8 3 5 4 3 3 3 3 3 2 2 3 2 2 2 2 2 2 2 2 3 3 3 3 2 2 1 1 1 1
5 4 2 1 0 1 2 3 2 2 1 7 3 4 7 4 3 4 5 3 2 2 3 2 3 2 1 2 2 2 3 2 2 2 2 2 3 3 3 3 2 1 1 1
2 6 3 1 3 3 4 5 5 5 5 4 2 6 6 3 2 1 3 3 2 2 2 3 3 3 2 2 2 3 3 2 1 2 1 1 2 2 1 2 1 2 2 2
3 6 3 3 2 4 3 4 3 3 2 3 5 4 5 2 4 4 3 3 2 2 2 2 2 3 2 2 2 2 2 2 2 1 1 2 1 1 1 1 1 1 1 1
2 5 5 3 1 1 3 3 2 3 3 5 4 4 4 2 1 1 1 1 1 1 2 2 2 2 2 2 2 2 3 2 2 2 1 1 1 1 1 1 1 0 0 0
1 3 5 2 3 4 1 2 3 3 3 4 4 5 3 3 2 2 2 1 1 2 2 2 3 3 3 3 3 3 3 3 3 2 1 2 1 1 1 1 1 0 0 1
1 1 4 6 4 2 3 3 4 4 4 3 3 5 3 1 1 1 1 1 1 2 3 3 4 4 4 3 3 3 2 2 2 2 1 1 1 1 1 0 1 1 1 1
2 1 3 4 2 2 1 1 2 2 2 3 4 5 3 4 4 3 2 1 1 3 4 4 4 3 3 2 2 2 2 2 1 2 2 2 1 1 0 0 1 1 1 1
2 3 5 7 5 2 4 5 3 2 3 4 6 5 4 4 3 3 2 1 1 3 3 3 3 2 2 2 2 2 2 2 1 1 1 1 1 1 1 0 0 0 0 1
1 3 5 8 7 4 5 6 5 5 6 6 6 5 5 4 3 2 1 2 3 3 3 2 2 1 2 2 2 2 2 2 2 1 1 1 1 1 1 1 1 1 0 0
1 3 3 6 5 4 6 5 6 6 5 6 4 5 5 4 2 3 2 2 2 2 1 1 2 2 1 1 1 1 2 2 2 1 1 1 1 1 1 1 1 1 1 0
2 2 2 5 5 3 4 4 4 3 2 2 4 5 5 4 2 2 2 2 2 1 1 1 1 1 1 1 0 1 1 2 2 1 1 1 0 1 1 1 1 1 1 1
4 3 2 3 1 5 4 0 1 1 1 2 2 4 4 3 2 2 2 2 1 2 1 1 1 1 2 1 1 1 1 1 1 2 1 1 0 1 1 0 0 1 1 1
5 4 2 2 3 5 3 3 2 2 1 3 3 5 5 4 3 2 4 3 2 2 1 1 1 2 2 2 1 1 2 2 2 2 2 1 1 1 1 1 1 1 1 1
1 2 2 2 3 3 3 7 7 1 1 4 4 4 4 3 2 3 4 4 3 3 2 2 2 2 2 2 2 1 2 2 2 3 3 2 1 1 1 1 1 1 1 1
1 0 2 3 3 4 4 8 4 2 4 5 4 3 3 2 3 3 3 3 2 3 3 3 2 2 2 2 2 2 2 2 3 3 3 3 2 1 1 1 1 1 1 1
1 1 1 1 2 5 5 4 2 2 2 3 3 3 2 2 3 3 3 2 3 3 3 3 2 3 3 2 2 2 2 3 3 2 3 3 2 2 1 1 1 1 1 1
1 2 2 3 3 2 2 1 2 2 2 3 3 4 3 3 3 4 3 3 3 3 3 3 2 3 3 3 2 2 3 3 3 3 3 3 3 2 2 1 1 1 1 1
3 2 0 1 2 3 3 3 3 3 3 3 3 3 3 2 3 3 3 3 3 3 3 3 3 3 3 4 3 3 3 3 2 3 3 3 2 2 2 2 1 1 1 1
3 2 2 2 2 3 3 3 4 4 4 4 4 3 3 2 2 2 2 2 2 3 3 3 2 3 3 3 4 4 4 3 3 3 3 3 2 2 2 2 2 2 1 2
2 2 2 4 4 3 4 5 4 4 4 5 5 5 4 3 2 2 2 2 2 3 3 3 3 3 3 4 4 5 4 4 3 3 3 2 2 2 2 2 2 4 3 4
Wind_Direction
148 119 206 212 206 211 194 209 243 247 229 210 238 256 263 245 222 218 217 210 209 211 211 187 170 158 134 121 132 154 153 162 150 146 148 145 152 146 137 150 143 144 146 151
58 234 231 211 206 226 233 247 260 281 265 227 259 268 265 240 219 210 208 210 209 211 198 186 166 148 143 146 149 162 164 165 166 166 167 165 161 157 170 174 111 137 147 153
207 239 219 188 204 226 244 227 237 258 304 281 290 291 266 265 228 221 208 202 200 194 194 190 175 171 158 160 177 180 171 159 161 148 133 115 93 79 78 99 131 114 134 128
245 260 224 212 222 209 246 229 225 237 232 263 200 279 280 255 261 240 229 208 207 201 188 182 175 169 175 187 181 166 160 149 146 141 145 147 154 164 185 179 161 118 103 112
254 241 214 230 232 199 229 239 230 230 206 250 232 231 280 290 254 250 233 220 212 192 172 170 171 165 165 169 157 143 137 135 131 136 151 155 154 161 142 144 123 89 34 147
257 262 216 229 245 208 218 40 5 43 116 243 219 196 272 248 235 236 225 226 206 176 160 153 144 122 119 127 128 121 120 130 138 136 143 154 157 159 147 151 176 205 240 213
298 280 266 193 64 2 77 99 14 332 251 246 212 200 248 274 267 214 198 200 184 152 137 134 129 121 123 120 129 126 122 118 133 138 142 156 167 171 171 178 189 198 215 240
280 281 252 229 196 202 211 170 180 211 228 269 251 224 251 291 316 98 134 138 121 131 137 143 146 140 129 107 112 120 121 115 108 118 127 127 146 157 162 173 189 205 215 227
227 266 298 275 245 166 187 220 196 168 227 248 255 272 299 7 29 45 74 98 119 146 142 138 130 122 116 108 99 113 114 108 100 103 112 116 114 121 138 160 185 205 215 195
210 264 279 291 354 265 184 174 125 168 207 241 262 250 245 264 290 10 42 89 97 95 92 91 112 110 104 101 91 82 81 92 99 101 103 93 104 116 124 139 155 147 244 152
291 246 288 305 210 212 189 192 193 192 208 204 240 262 251 234 217 191 201 175 155 146 120 105 100 88 78 67 69 76 75 65 57 62 91 85 85 96 108 154 201 206 311 222
323 227 262 258 260 234 187 195 171 192 240 225 225 264 321 324 307 153 152 101 97 102 97 92 96 88 78 71 62 61 64 61 47 39 64 81 82 98 110 168 228 193 216 241
320 259 299 319 310 2 308 260 221 210 201 211 217 254 342 22 28 38 47 34 60 96 91 82 83 82 78 73 63 53 49 47 40 44 53 61 53 58 102 261 242 208 207 233
320 221 218 233 252 264 275 282 273 195 215 239 235 250 301 338 345 357 9 21 78 100 101 91 84 80 73 67 67 58 33 18 29 46 62 60 35 1 332 337 358 286 191 204
50 248 251 264 270 258 256 270 261 235 228 229 250 249 280 300 295 305 347 41 78 81 81 81 79 66 58 51 39 37 22 8 12 27 36 20 2 17 24 17 11 12 51 206
351 262 276 274 266 267 275 279 256 248 244 240 253 272 298 311 356 16 18 50 67 62 54 54 61 61 52 53 30 11 0 352 359 351 338 337 13 26 28 14 6 8 1 348
248 246 273 267 280 293 268 271 246 225 246 226 244 271 318 338 354 332 338 39 48 30 17 40 56 46 336 311 339 330 323 343 356 334 320 340 3 11 342 3 20 357 335 341
207 232 242 265 310 241 238 204 172 161 35 16 351 334 325 310 308 357 38 58 11 343 353 1 6 3 351 351 359 353 360 2 357 347 332 327 326 323 329 352 328 315 321 314
204 198 224 227 243 262 306 346 332 240 259 354 338 329 336 336 343 3 15 18 354 325 336 355 5 1 1 0 359 9 10 5 359 338 329 322 300 289 294 294 295 301 315 317
104 163 205 230 237 249 298 315 310 186 256 346 349 327 327 0 345 300 338 349 2 14 18 23 28 26 18 353 2 27 11 3 340 325 323 332 321 283 269 268 278 291 287 288
10 344 221 235 244 265 309 319 353 112 281 327 343 333 341 326 267 288 323 347 21 29 24 29 32 26 7 3 28 29 9 335 319 325 332 335 329 308 272 270 283 273 290 300
180 189 231 209 237 271 335 15 48 264 316 343 349 348 343 331 341 5 19 25 27 26 24 23 23 12 7 13 28 15 345 328 333 341 340 332 324 318 327 302 306 301 269 269
213 206 206 200 218 284 351 344 307 325 340 339 346 342 343 356 359 3 13 20 18 21 18 13 21 17 12 12 20 1 335 340 347 353 345 332 329 331 331 318 310 320 301 268
312 340 205 266 288 329 336 338 347 350 335 331 343 339 349 353 357 2 7 9 10 16 15 15 24 23 9 3 7 353 339 345 354 352 343 339 344 344 345 339 334 322 309 295
294 330 326 282 296 317 334 337 331 340 350 349 347 348 341 348 350 351 356 356 0 6 5 11 15 9 358 358 1 355 352 359 358 350 345 346 347 342 344 348 341 325 301 287
304 271 255 262 273 276 291 314 334 345 346 342 341 341 344 346 337 348 352 352 0 3 1 3 5 3 358 359 356 352 351 356 356 347 344 343 342 338 336 337 346 359 351 351